map of HKY home
HKY - Airport
Location
City:  Hickory, North Carolina, United States
Name:Hickory Regional
ICAO:KHKY
IATA:HKY
FAA LID:HKY

Details
Type:Airport (Part 139 Class I)
Use:Public/Civil
Latitude:3544'28"N (35.741146)
Longitude:8123'22"W (-81.389548)
Datum:WGS 1984
Elevation:1189 ft (362 m)
Variation:7.48W (WMM2015v2 magnetic declination)
-0.03 annual change
Runways:2
Longest:6400 × 150 ft (1951 × 45.5 m), paved

Time
Time Zone:UTC-5 (DST-4)
Local Time:

Weather
METAR:KHKY 041353Z 32003KT 10SM CLR 06/03 A3009 RMK AO2 SLP179 T00560028
TAF:KHKY 041136Z 0412/0512 31004KT P6SM FEW250
FM041900 19004KT P6SM FEW250
FM050000 VRB02KT P6SM SCT120 BKN250
FM050700 24003KT P6SM SCT050

Related Locations
Nearby:
Farthest:YAUG: 11502 mi / 18510 km
Augusta [Augusta Airport], WA, AU

Find:

   beyond  
but within

Other Information
Maps:
NOTAMs:
Links:
Sources:

  
  • flag of United States
  • flag of North Carolina
  

Airport Diagram

Airport diagram for HKY

Airport diagram PDF from FAA

Sectional Chart

Flight Planning
at skyvector.com

Satellite Image

Google Maps Satellite view

 

Copyright © 2004-2019 Karl L. Swartz. All rights reserved.
The Great Circle Mapper name and logo are trademarks of the Great Circle Mapper.
All other trademarks mentioned herein belong to their respective owners.
Please see credits for attibutions and further copyright information.

  Follow gcmap on Facebook Follow gcmap on Twitter GCmap on LinkedIn

hCard Microformat

Geo Microformat